This is the latest recevied weather packets stored in our database for station/object IZ7EXI-13. If no packets are shown the sender has not sent any weather packets the latest 10 day(s).
| Time | Temp. | Humidity | Pressure | Rain* | Wind** | Luminosity | Snow |
|---|---|---|---|---|---|---|---|
| 1777552648 | 16.67° C | 71% | 1022.6 hPa | - | - | - | - |
| 1777551747 | 16.67° C | 71% | 1022.6 hPa | - | - | - | - |
| 1777550847 | 16.67° C | 73% | 1022.5 hPa | - | - | - | - |
| 1777549947 | 16.11° C | 78% | 1022.3 hPa | - | - | - | - |
| 1777549047 | 15° C | 89% | 1022.5 hPa | - | - | - | - |
| 1777548146 | 15° C | 88% | 1022.5 hPa | - | - | - | - |
| 1777547246 | 14.44° C | 85% | 1022.4 hPa | - | - | - | - |
| 1777546346 | 15.56° C | 83% | 1022 hPa | - | - | - | - |
| 1777545446 | 17.22° C | 82% | 1021.8 hPa | - | - | - | - |
| 1777544546 | 17.78° C | 78% | 1021.8 hPa | - | - | - | - |
| 1777543645 | 18.89° C | 75% | 1021.7 hPa | - | - | - | - |
| 1777542745 | 18.89° C | 76% | 1021.7 hPa | - | - | - | - |
| 1777541845 | 19.44° C | 74% | 1021.6 hPa | - | - | - | - |
| 1777540945 | 19.44° C | 75% | 1021.6 hPa | - | - | - | - |
| 1777540044 | 19.44° C | 76% | 1021.7 hPa | - | - | - | - |
| 1777539144 | 18.89° C | 80% | 1021.6 hPa | - | - | - | - |
| 1777538244 | 17.78° C | 81% | 1021.6 hPa | - | - | - | - |
| 1777537344 | 17.78° C | 81% | 1021.4 hPa | - | - | - | - |
| 1777536444 | 18.33° C | 81% | 1021.4 hPa | - | - | - | - |
| 1777535543 | 18.33° C | 81% | 1021 hPa | - | - | - | - |
| 1777534643 | 17.78° C | 84% | 1020.8 hPa | - | - | - | - |
| 1777533743 | 17.78° C | 84% | 1020.7 hPa | - | - | - | - |
| 1777532842 | 17.78° C | 85% | 1020.6 hPa | - | - | - | - |
| 1777531942 | 17.78° C | 85% | 1020.5 hPa | - | - | - | - |
| 1777531042 | 18.33° C | 84% | 1020.4 hPa | - | - | - | - |
* Rain since midnight (hover to see other rain measurements)
** Current wind speed in m/s (hover to see current wind gust speed)